Weather History for Liberal, KS

Change the Weather History Date:

Tuesday, April 15, 2014

  Actual Average Record
Temperature  
Mean Temperature 46 °F -  
Max Temperature 69 °F 72 °F 95 °F (1963)
Min Temperature 24 °F 40 °F 24 °F (2014)
Degree Days  
Heating Degree Days 18    
Moisture  
Dew Point 21 °F    
Average Humidity 44    
Maximum Humidity 74    
Minimum Humidity 16    
Precipitation  
Precipitation 0.00 in - - ()
Sea Level Pressure  
Sea Level Pressure 30.06 in    
Wind  
Wind Speed 13 mph (SW)    
Max Wind Speed 25 mph    
Max Gust Speed 32 mph    
Visibility 10 miles    
Events      
Averages and records for this station are not official NWS values.
T = Trace of Precipitation, MM = Missing Value Source: NWS Daily Summary

Daily Weather History Graph

Daily Weather History Graph

Search for Another Location

Airport:

Trip Planner

Search our weather history database for the weather conditions in past years. The results will help you decide how hot, cold, wet, or windy it might be!

Date:

Astronomy

Apr. 15, 2014 Rise Set
Actual Time 7:09 AM CDT 8:18 PM CDT
Civil Twilight 6:42 AM CDT 8:45 PM CDT
Nautical Twilight 6:10 AM CDT 9:17 PM CDT
Astronomical Twilight 5:37 AM CDT 9:50 PM CDT
Moon 9:00 PM CDT (4/15) 7:18 AM CDT (4/15)
Length of Visible Light 14h 02m
Length of Day
13h 09m
Full, 100% of the Moon is Illuminated
Apr 15
Full
Apr 22
Last Quarter
Apr 29
New
May 6
First Quarter
May 14
Full

Hourly Weather History & Observations

Time (CDT) Temp. Windchill Dew Point Humidity Pressure Visibility Wind Dir Wind Speed Gust Speed Precip Events Conditions
12:15 AM 26.6 °F 17.5 °F 17.6 °F 69% 30.28 in 10.0 mi West 9.2 mph - N/A   Clear
12:35 AM 26.6 °F 16.8 °F 17.6 °F 69% 30.27 in 10.0 mi WNW 10.4 mph - N/A   Clear
12:55 AM 26.6 °F 17.5 °F 17.6 °F 69% 30.27 in 10.0 mi WNW 9.2 mph - N/A   Clear
1:15 AM 26.6 °F 18.2 °F 17.6 °F 69% 30.27 in 10.0 mi WNW 8.1 mph - N/A   Clear
1:35 AM 26.6 °F 17.5 °F 15.8 °F 64% 30.27 in 10.0 mi West 9.2 mph - N/A   Clear
1:55 AM 26.6 °F 18.2 °F 17.6 °F 69% 30.27 in 10.0 mi West 8.1 mph - N/A   Clear
2:15 AM 26.6 °F 17.5 °F 17.6 °F 69% 30.27 in 10.0 mi West 9.2 mph - N/A   Clear
2:35 AM 24.8 °F 15.3 °F 17.6 °F 74% 30.26 in 10.0 mi West 9.2 mph - N/A   Clear
2:55 AM 24.8 °F 15.3 °F 17.6 °F 74% 30.25 in 10.0 mi West 9.2 mph - N/A   Clear
3:15 AM 26.6 °F 17.5 °F 17.6 °F 69% 30.25 in 10.0 mi West 9.2 mph - N/A   Clear
3:35 AM 24.8 °F 15.3 °F 17.6 °F 74% 30.24 in 10.0 mi West 9.2 mph - N/A   Clear
3:55 AM 24.8 °F 15.3 °F 17.6 °F 74% 30.23 in 10.0 mi West 9.2 mph - N/A   Clear
4:15 AM 24.8 °F 16.1 °F 17.6 °F 74% 30.23 in 10.0 mi West 8.1 mph - N/A   Clear
4:35 AM 24.8 °F 15.3 °F 17.6 °F 74% 30.22 in 10.0 mi West 9.2 mph - N/A   Clear
4:55 AM 24.8 °F 16.1 °F 17.6 °F 74% 30.22 in 10.0 mi West 8.1 mph - N/A   Clear
5:15 AM 24.8 °F 16.9 °F 15.8 °F 69% 30.21 in 10.0 mi WSW 6.9 mph - N/A   Clear
5:35 AM 24.8 °F 16.9 °F 15.8 °F 69% 30.21 in 10.0 mi WSW 6.9 mph - N/A   Clear
5:55 AM 24.8 °F 16.9 °F 17.6 °F 74% 30.20 in 10.0 mi WSW 6.9 mph - N/A   Clear
6:15 AM 24.8 °F 14.6 °F 17.6 °F 74% 30.20 in 10.0 mi WSW 10.4 mph - N/A   Clear
6:35 AM 26.6 °F 17.5 °F 17.6 °F 69% 30.20 in 10.0 mi WSW 9.2 mph - N/A   Clear
6:55 AM 26.6 °F 18.2 °F 17.6 °F 69% 30.20 in 10.0 mi WSW 8.1 mph - N/A   Clear
7:15 AM 26.6 °F 17.5 °F 17.6 °F 69% 30.20 in 10.0 mi WSW 9.2 mph - N/A   Clear
7:35 AM 28.4 °F 20.4 °F 17.6 °F 64% 30.20 in 10.0 mi WSW 8.1 mph - N/A   Clear
7:55 AM 28.4 °F 19.7 °F 19.4 °F 69% 30.20 in 10.0 mi SW 9.2 mph - N/A   Clear
8:15 AM 30.2 °F 23.4 °F 21.2 °F 69% 30.19 in 10.0 mi SSW 6.9 mph - N/A   Clear
8:35 AM 33.8 °F 25.8 °F 23.0 °F 65% 30.19 in 10.0 mi SSW 10.4 mph - N/A   Clear
8:55 AM 35.6 °F 26.6 °F 24.8 °F 65% 30.19 in 10.0 mi SSW 13.8 mph - N/A   Clear
9:15 AM 37.4 °F 30.3 °F 24.8 °F 60% 30.18 in 10.0 mi SSW 10.4 mph - N/A   Clear
9:35 AM 41.0 °F 33.5 °F 26.6 °F 57% 30.18 in 10.0 mi SSW 13.8 mph - N/A   Clear
9:55 AM 42.8 °F 34.8 °F 26.6 °F 53% 30.17 in 10.0 mi SSW 17.3 mph - N/A   Clear
10:15 AM 44.6 °F 36.6 °F 26.6 °F 49% 30.17 in 10.0 mi SSW 19.6 mph 23.0 mph N/A   Clear
10:35 AM 48.2 °F - 28.4 °F 46% 30.16 in 10.0 mi SSW 23.0 mph 26.5 mph N/A   Clear
10:55 AM 50.0 °F - 28.4 °F 43% 30.15 in 10.0 mi SW 24.2 mph 31.1 mph N/A   Clear
11:15 AM 51.8 °F - 26.6 °F 38% 30.14 in 10.0 mi SSW 25.3 mph 32.2 mph N/A   Clear
11:55 AM 53.6 °F - 26.6 °F 35% 30.12 in 10.0 mi SW 25.3 mph 32.2 mph N/A   Clear
12:15 PM 55.4 °F - 28.4 °F 36% 30.10 in 10.0 mi SSW 25.3 mph 29.9 mph N/A   Clear
12:55 PM 57.2 °F - 28.4 °F 33% 30.08 in 10.0 mi SSW 25.3 mph 31.1 mph N/A   Clear
1:15 PM 60.8 °F - 28.4 °F 29% 30.07 in 10.0 mi SSW 25.3 mph 29.9 mph N/A   Clear
1:35 PM 60.8 °F - 28.4 °F 29% 30.05 in 10.0 mi SSW 23.0 mph - N/A   Clear
1:55 PM 60.8 °F - 26.6 °F 27% 30.04 in 10.0 mi SSW 23.0 mph 31.1 mph N/A   Clear
2:15 PM 62.6 °F - 26.6 °F 26% 30.03 in 10.0 mi South 21.9 mph 29.9 mph N/A   Clear
2:35 PM 62.6 °F - 28.4 °F 27% 30.02 in 10.0 mi SSW 23.0 mph 32.2 mph N/A   Clear
2:55 PM 62.6 °F - 26.6 °F 26% 30.01 in 10.0 mi South 23.0 mph 31.1 mph N/A   Clear
3:15 PM 64.4 °F - 26.6 °F 24% 30.00 in 10.0 mi South 20.7 mph 27.6 mph N/A   Clear
3:35 PM 64.4 °F - 28.4 °F 26% 29.97 in 10.0 mi South 21.9 mph 29.9 mph N/A   Clear
3:55 PM 66.2 °F - 26.6 °F 23% 29.96 in 10.0 mi South 23.0 mph 29.9 mph N/A   Clear
4:15 PM 66.2 °F - 26.6 °F 23% 29.94 in 10.0 mi SW 23.0 mph 27.6 mph N/A   Clear
4:35 PM 68.0 °F - 26.6 °F 21% 29.92 in 10.0 mi SW 18.4 mph 26.5 mph N/A   Clear
4:55 PM 68.0 °F - 24.8 °F 20% 29.90 in 10.0 mi SSW 19.6 mph 26.5 mph N/A   Clear
5:15 PM 69.8 °F - 24.8 °F 18% 29.88 in 10.0 mi SSW 19.6 mph 26.5 mph N/A   Clear
5:35 PM 68.0 °F - 23.0 °F 18% 29.88 in 10.0 mi SSW 20.7 mph 24.2 mph N/A   Clear
5:55 PM 68.0 °F - 21.2 °F 17% 29.87 in 10.0 mi SW 18.4 mph 26.5 mph N/A   Clear
6:15 PM 68.0 °F - 21.2 °F 17% 29.86 in 10.0 mi SSW 21.9 mph 27.6 mph N/A   Clear
6:35 PM 66.2 °F - 21.2 °F 18% 29.85 in 10.0 mi SSW 21.9 mph 26.5 mph N/A   Clear
6:55 PM 69.8 °F - 21.2 °F 16% 29.84 in 10.0 mi SSW 21.9 mph 25.3 mph N/A   Clear
7:15 PM 66.2 °F - 19.4 °F 17% 29.83 in 10.0 mi South 20.7 mph 27.6 mph N/A   Clear
7:35 PM 64.4 °F - 17.6 °F 16% 29.83 in 10.0 mi South 16.1 mph - N/A   Clear
7:55 PM 62.6 °F - 19.4 °F 19% 29.82 in 10.0 mi South 16.1 mph - N/A   Clear
8:15 PM 60.8 °F - 19.4 °F 20% 29.82 in 10.0 mi South 13.8 mph - N/A   Clear
8:35 PM 57.2 °F - 19.4 °F 23% 29.81 in 10.0 mi SSE 10.4 mph - N/A   Clear
8:55 PM 57.2 °F - 19.4 °F 23% 29.82 in 10.0 mi SSE 11.5 mph - N/A   Clear
9:15 PM 55.4 °F - 19.4 °F 25% 29.82 in 10.0 mi South 13.8 mph - N/A   Clear
9:35 PM 55.4 °F - 17.6 °F 23% 29.81 in 10.0 mi South 16.1 mph - N/A   Clear
9:55 PM 55.4 °F - 17.6 °F 23% 29.82 in 10.0 mi South 18.4 mph - N/A   Clear
10:15 PM 55.4 °F - 17.6 °F 23% 29.82 in 10.0 mi South 19.6 mph 24.2 mph N/A   Clear
10:35 PM 53.6 °F - 15.8 °F 22% 29.81 in 10.0 mi South 19.6 mph - N/A   Clear
10:55 PM 53.6 °F - 15.8 °F 22% 29.81 in 10.0 mi South 20.7 mph 25.3 mph N/A   Clear
11:15 PM 53.6 °F - 15.8 °F 22% 29.81 in 10.0 mi South 20.7 mph - N/A   Clear
11:35 PM 53.6 °F - 14.0 °F 21% 29.80 in 10.0 mi South 19.6 mph - N/A   Clear
11:55 PM 51.8 °F - 14.0 °F 22% 29.79 in 10.0 mi South 19.6 mph 25.3 mph N/A   Clear